Charles W. Baker (2M8)
Millington, TN
Field Elevation: 247
Lat: 35°16.74N  Long: 89°55.89W
CTAF/Unicom Freq: 122.8000
   
     For Weather-by-Phone, call 901-873-0903
Weather Advisories
7/29/2014 06:33 Z
Altimeter 30.07" Hg
Wind 010° @ 4 KT
Gusts --
Visibility 10 SM
Ceiling FEW050
Temperature 23° C (73° F)
Dewpoint 21° C (70° F)
Relative Humidity 88%
Density Altitude --
Condensation Altitude 1,400 feet
  Wind and Runways
Indicated Runway = 36
History
 
 
More Info
All DigiWx sites map
NOAA Forecast
 
Airport IQ 5010
(M01) General Dewitt Spain Airport
(3M3) Collegedale Muni
 
about DigiWx
 
FAA Disclaimer: The data displayed is for advisory purposes only and is not to be used for flight planning or operations. For official data, please call 901-873-0903 to hear the current automated AWOS voice message.
  METAR 2M8 290633Z AUTO 01004KT 10SM FEW050 23/21 A3007